Location: Newark
(51.3000°N, 178.2000°W)
Time: 01:55:23
(UTC+00:00)

ISS - Pass Details

Date: 11 May 2021
Orbit: 417 x 422 km, 51.6° (Epoch: 15 June)

Event Time Altitude Azimuth Distance (km) Brightness Sun altitude
Exits shadow 13:59:35 10° 277° (W) 1,492 -1.2 -15.0°
Maximum altitude 14:02:56 87° 8° (N) 428 -3.8 -14.7°
Drops below altitude 10° 14:06:20 10° 97° (E) 1,509 -0.6 -14.5°
Sets 14:08:26 0° 97° (E) 2,374 0.4 -14.3°
